Weather in Horsens

Denmark     55°51′49″N   9°50′40″E
temp.,
°C
wind,
m/s
gust,
m/s
humid.,
%
clouds,
%
prec.,
mm/h
press.,
hPa
HPBL,
m
28 february, sun
sun2801:00+4wnw510930 0.0 1036267
04:00+5wnw5109378 0.0 1035420
07:00+4wnw5129369 0.0 1035363
10:00+6wnw610830 0.0 1035471
13:00+9wnw710670 0.0 1035629
16:00+9wnw6116626 0.0 1034602
19:00+5wnw498334 0.0 1034284
22:00+4wnw5108735 0.0 1035245
1 march, mon
mon101:00+3wnw5118843 0.0 1035248
04:00+3w499431 0.0 1034198
07:00+3wnw5109564 0.0 1034254
10:00+7wnw6118229 0.0 1034399
13:00+10wnw6106415 0.0 1035563
16:00+10wnw59630 0.0 1034571
19:00+5wnw48820 0.0 1034180
22:00+4wnw48860 0.0 1034176
2 march, tue
tue201:00+3wnw47890 0.0 1034147
04:00+3wnw48890 0.0 1033146
07:00+2wnw48890 0.0 1033152
10:00+6wnw47700 0.0 1033274
13:00+9wnw35570 0.0 1034408
16:00+10wnw34590 0.0 1032467
19:00+6wnw23760 0.0 103224
22:00+4nw22810 0.0 103222
3 march, wed
wed301:00+3wnw12790 0.0 103122
04:00+3w22800 0.0 103022
07:00+2wnw12830 0.0 102922
10:00+6w12674 0.0 1028159
13:00+9wsw23562 0.0 1026475
16:00+10w35570 0.0 1024537
19:00+5wnw36770 0.0 1022116
22:00+3w48840 0.0 1020187
4 march, thu
thu401:00+3w511870 0.0 1018280
04:00+2wnw612920 0.0 1016337
07:00+1nw48942 0.0 1015203
10:00+3ne7108373 0.0 1016732
13:00+3ne7107687 0.0 1017889
16:00+3ne71152100 0.0 1018901
19:000nne6136078 0.0 1020566
22:000ne512540 0.0 1022700